Tracking 19286 objects as of 19-Nov-2018
HD Live streaming from Space Station
objects crossing your sky now

USA 252

Track USA 252 now!
USA 252 is classified as:


NORAD ID: 39751
Int'l Code: 2014-027A
Perigee: 35,785.8 km
Apogee: 35,802.7 km
Inclination: 2.5 °
Period: 1,436.1 minutes
Semi major axis: 42165 km
RCS: Unknown
Launch date: May 22, 2014
Source: United States (US)
Launch site: AIR FORCE EASTERN TEST RANGE (AFETR)

USA 252 is a secretive spacecraft payload believed to be part of the Satellite Data System (SDS) network.
aabbcc
Your satellite tracking list
Your tracking list is empty




NASA's NSSDC Master Catalog

Two Line Element Set (TLE):
1 39751U 14027A   18294.98930768 0.00000000  00000-0  00000-0 0    06
2 39751   2.4509 196.5601 0002002   0.9444 358.9699  1.00270000    09
Source of the keplerian elements: McCants